Location: Colorado Springs
(38.8340°N, 104.8210°W)
Time: 13:33:22
(UTC-06:00)

ISS - Pass Details

Date: 14 October 2017
Orbit: 401 x 408 km, 51.6° (Epoch: 22 October)

Event Time Altitude Azimuth Distance (km) Brightness Sun altitude
Rises 18:58:13 0° 312° (NW) 2,324 0.7 -7.9°
Reaches altitude 10° 19:00:20 10° 318° (NW) 1,463 -0.4 -8.3°
Maximum altitude 19:03:32 48° 35° (NE) 536 -3.5 -8.9°
Enters shadow 19:06:28 12° 110° (ESE) 1,361 -1.7 -9.5°
